Vorticity
10 10 2 7 7 9 11 5 5 3 7 11 15 11 1 13 19 4 5 11 11 9 10 13 25 15 35 21 19 7 12 17 6 -0 14 25 21 7 9 2 -9 2 7 5
7 8 10 7 13 16 16 11 8 14 15 -2 13 14 8 10 7 3 7 15 7 17 15 17 17 31 20 22 21 17 6 22 12 6 9 21 32 8 1 13 11 3 7 4
9 -5 10 12 8 12 12 12 14 11 8 12 19 19 22 -10 6 4 15 4 17 17 25 24 27 21 11 14 14 23 17 22 18 8 1 18 19 28 3 4 0 17 -4 2
17 3 9 10 13 17 3 10 5 11 10 23 4 22 3 -12 1 4 18 3 18 15 19 17 11 4 20 12 28 19 4 7 19 10 8 9 26 33 19 1 18 2 0 9
6 17 5 3 6 18 9 14 33 7 13 6 13 6 18 -7 1 5 16 3 13 -0 11 17 15 6 18 13 12 11 34 19 22 11 5 4 12 29 19 12 -10 17 15 3
20 14 13 8 23 19 6 18 14 13 7 18 16 5 9 10 -2 6 17 21 2 15 23 21 29 4 44 6 9 16 20 26 21 14 4 3 1 13 34 15 12 4 -1 10
14 5 10 2 20 1 14 8 24 13 7 15 5 10 4 -3 1 7 14 14 18 17 24 -6 22 4 -14 46 5 10 21 31 20 16 10 8 0 3 17 20 16 0 -3 8
5 16 10 -0 13 13 13 11 7 2 7 6 6 9 21 -4 1 7 9 23 2 9 27 12 -16 29 10 14 45 -3 9 17 22 23 15 15 14 19 15 17 4 34 -14 13
10 19 5 13 10 15 7 7 4 8 15 12 11 16 10 4 -2 5 7 17 16 7 4 5 3 25 7 7 31 17 0 27 8 29 25 32 30 35 16 17 21 15 9 8
-5 11 3 9 4 7 16 12 7 14 10 14 19 13 3 3 2 4 5 8 9 14 12 1 14 -5 22 -1 35 21 20 20 46 39 22 2 7 19 23 6 8 19 1 -0
15 11 7 12 7 6 6 9 10 10 8 8 7 16 2 -0 7 4 3 3 6 11 15 8 7 1 12 17 31 24 24 20 26 33 4 -15 50 97 7 -5 -2 -1 10 20
2 9 12 9 0 6 6 7 14 7 16 8 5 16 6 5 8 4 4 3 4 5 6 10 12 10 7 3 -9 9 40 40 4 17 5 9 11 10 10 10 4 5 15 27
2 4 13 6 14 17 9 3 6 13 13 22 10 6 -2 8 4 5 5 5 3 3 4 5 10 13 13 4 16 5 -0 71 24 12 14 9 7 9 6 6 9 4 14 1
15 4 2 -14 -9 -9 1 11 10 5 8 3 -7 -10 -3 14 10 8 8 6 5 3 2 2 3 5 10 13 5 4 16 17 15 5 30 22 26 18 12 -3 11 14 18 24
9 13 7 2 14 13 9 7 6 1 3 4 -21 -4 14 6 8 7 6 10 6 6 3 2 2 2 3 5 10 14 6 4 4 10 25 9 8 12 -5 22 31 21 36 33
13 -1 1 31 12 11 11 13 10 11 8 8 20 4 17 17 20 16 15 9 9 3 5 5 2 2 2 3 2 4 8 10 8 4 3 10 28 19 16 21 5 6 5 10
17 4 3 12 -3 6 48 41 24 11 5 9 10 11 -1 9 13 17 15 12 9 9 4 4 6 3 2 2 2 2 3 4 4 6 9 13 9 7 12 18 13 14 12 12
-2 3 22 1 28 17 8 6 9 8 13 7 14 14 10 11 11 11 16 19 14 10 9 7 6 6 4 3 3 3 3 4 3 3 2 3 5 7 7 6 6 4 4 6
12 9 9 4 6 -12 46 28 7 2 2 10 9 9 11 10 10 12 12 14 17 17 14 10 8 9 7 6 4 3 3 1 3 4 4 4 4 3 4 3 4 4 4 4
12 9 -9 3 10 4 -8 -3 6 4 29 17 3 8 11 9 8 8 8 9 11 13 17 16 14 11 9 9 9 11 10 8 6 5 5 6 6 5 4 4 3 3 3 3
12 20 -1 16 -2 12 7 14 0 19 -7 6 16 16 12 16 6 7 7 8 8 9 12 13 14 13 12 10 8 8 8 9 10 10 10 10 9 9 9 10 10 10 10 9
8 6 4 28 2 18 31 21 -7 -23 14 -10 7 10 5 10 14 12 8 7 7 8 8 10 12 14 15 13 11 10 10 9 9 9 8 9 9 9 8 8 7 6 6 6
26 11 -25 -14 -2 -33 -24 -21 -15 21 2 5 0 8 6 3 10 8 15 10 8 7 7 8 8 10 13 15 12 10 9 7 7 8 8 7 6 6 6 7 8 8 8 9
11 2 -8 10 13 18 10 2 2 -1 -4 12 11 17 9 4 -0 4 10 10 12 9 7 8 7 8 9 11 14 17 12 8 7 6 6 5 5 6 7 9 9 9 10 11
-6 -2 -2 -17 18 33 36 38 32 30 20 5 6 4 3 5 1 4 3 9 9 12 9 8 8 7 7 8 11 13 14 15 13 10 9 8 8 9 10 10 10 11 11 9
13 23 11 3 38 39 23 17 18 17 20 18 13 9 6 7 10 10 3 5 13 9 12 10 8 9 7 7 9 11 13 14 14 14 13 12 12 11 10 9 8 8 9 9
Height
3081 3079 3079 3077 3077 3075 3074 3073 3072 3071 3071 3067 3065 3063 3062 3062 3060 3057 3051 3045 3038 3032 3028 3023 3021 3018 3014 3013 3013 3016 3021 3025 3030 3034 3039 3044 3050 3059 3067 3076 3085 3090 3095 3101
3080 3077 3076 3074 3073 3072 3070 3069 3068 3066 3066 3065 3061 3059 3058 3058 3056 3052 3045 3038 3029 3023 3019 3016 3011 3008 3006 3004 3004 3006 3010 3014 3019 3025 3031 3036 3042 3051 3059 3068 3075 3082 3087 3094
3078 3077 3072 3072 3071 3069 3067 3066 3065 3064 3062 3060 3058 3053 3056 3057 3053 3048 3041 3033 3027 3020 3013 3009 3006 3002 2998 2996 2996 2997 3000 3003 3009 3017 3022 3027 3032 3040 3048 3055 3064 3069 3078 3085
3076 3073 3071 3070 3068 3066 3064 3062 3061 3061 3061 3056 3057 3046 3049 3052 3048 3042 3035 3029 3024 3018 3012 3006 3001 2999 2995 2992 2990 2992 2993 2995 2999 3006 3012 3017 3022 3027 3037 3046 3055 3063 3070 3077
3076 3071 3070 3068 3066 3063 3062 3058 3056 3059 3059 3057 3055 3055 3047 3046 3042 3037 3031 3026 3022 3016 3010 3003 2999 2995 2991 2988 2987 2986 2986 2988 2992 2998 3004 3009 3014 3021 3030 3039 3045 3053 3062 3070
3071 3069 3067 3065 3061 3059 3059 3058 3057 3058 3058 3055 3050 3052 3043 3042 3038 3034 3028 3023 3019 3014 3009 3003 2997 2991 2987 2985 2984 2983 2983 2982 2986 2990 2996 3002 3008 3014 3020 3029 3036 3045 3054 3061
3071 3069 3065 3063 3062 3059 3059 3058 3055 3056 3054 3046 3048 3049 3042 3039 3036 3032 3026 3022 3017 3011 3006 3003 2995 2989 2984 2981 2979 2979 2978 2979 2982 2986 2991 2996 3000 3007 3012 3022 3030 3039 3046 3054
3071 3069 3066 3062 3061 3059 3059 3058 3057 3048 3044 3043 3046 3042 3041 3038 3035 3031 3026 3021 3016 3012 3006 3002 2996 2990 2984 2980 2977 2979 2978 2977 2979 2981 2986 2990 2995 3000 3006 3014 3025 3030 3041 3051
3070 3068 3064 3061 3059 3059 3058 3058 3057 3056 3051 3048 3041 3041 3039 3036 3035 3031 3027 3022 3017 3013 3008 3002 2998 2992 2987 2984 2979 2978 2977 2977 2977 2976 2979 2983 2988 2994 3001 3012 3022 3031 3037 3044
3070 3067 3064 3062 3060 3058 3056 3056 3057 3055 3051 3042 3035 3036 3035 3035 3032 3030 3027 3022 3018 3013 3009 3005 3001 2995 2990 2987 2983 2979 2976 2974 2971 2970 2975 2977 2982 2989 3000 3009 3018 3026 3033 3039
3067 3068 3066 3062 3059 3058 3057 3056 3055 3054 3052 3047 3039 3033 3033 3031 3030 3028 3025 3022 3018 3014 3010 3007 3003 3000 2995 2991 2985 2981 2976 2976 2974 2974 2973 2971 2970 2979 2996 3005 3012 3019 3025 3030
3067 3065 3062 3064 3058 3057 3055 3054 3052 3052 3050 3048 3045 3036 3030 3030 3029 3027 3025 3022 3019 3016 3012 3009 3005 3002 3000 2995 2992 2984 2977 2975 2974 2972 2979 2982 2983 2988 2994 3001 3008 3013 3018 3022
3066 3064 3061 3058 3059 3055 3053 3051 3050 3049 3048 3044 3043 3033 3029 3027 3027 3025 3024 3022 3020 3017 3014 3012 3009 3006 3004 3000 2996 2990 2985 2982 2982 2983 2985 2986 2990 2993 2996 3001 3005 3010 3013 3019
3065 3062 3060 3058 3055 3053 3050 3048 3047 3046 3046 3042 3037 3032 3031 3027 3023 3023 3022 3021 3020 3018 3016 3013 3011 3010 3007 3005 3002 2998 2993 2989 2986 2987 2987 2989 2992 2995 2998 3001 3004 3007 3010 3013
3064 3059 3057 3054 3050 3048 3045 3044 3043 3040 3039 3037 3031 3027 3026 3024 3022 3019 3019 3020 3019 3019 3018 3016 3014 3012 3010 3008 3006 3003 3001 2999 2995 2992 2991 2992 2991 2995 2996 3000 3002 3005 3007 3009
3061 3058 3054 3047 3045 3043 3040 3038 3037 3036 3033 3029 3026 3021 3021 3019 3017 3016 3016 3016 3016 3017 3017 3017 3015 3014 3012 3010 3010 3007 3004 3003 3001 3000 2998 2996 2994 2995 2998 3001 3003 3003 3005 3006
3059 3056 3053 3047 3043 3039 3034 3030 3031 3030 3029 3028 3024 3022 3018 3017 3015 3013 3012 3012 3013 3014 3014 3015 3015 3014 3013 3012 3011 3010 3009 3006 3005 3004 3004 3002 3002 3000 3002 3003 3004 3005 3007 3009
3055 3054 3053 3046 3043 3038 3028 3028 3028 3027 3026 3024 3022 3020 3017 3015 3013 3012 3010 3009 3009 3010 3011 3011 3012 3012 3012 3011 3011 3010 3009 3008 3008 3007 3006 3006 3006 3006 3006 3007 3008 3009 3010 3011
3051 3052 3050 3048 3044 3033 3024 3023 3025 3024 3023 3021 3020 3018 3016 3014 3012 3010 3008 3007 3007 3006 3006 3006 3007 3008 3009 3009 3009 3009 3008 3007 3007 3007 3007 3006 3007 3007 3007 3008 3008 3009 3009 3010
3048 3048 3049 3046 3045 3033 3022 3022 3023 3022 3018 3019 3019 3017 3015 3013 3011 3009 3008 3006 3004 3003 3003 3003 3002 3003 3004 3005 3005 3005 3005 3006 3005 3005 3005 3005 3005 3005 3006 3006 3006 3007 3008 3009
3045 3042 3040 3040 3039 3027 3020 3021 3020 3022 3023 3017 3015 3014 3012 3011 3010 3008 3006 3005 3003 3002 3001 3000 2999 2999 2999 3000 3000 3001 3001 3002 3002 3002 3003 3003 3003 3003 3004 3004 3004 3003 3003 3004
3043 3040 3034 3033 3032 3023 3016 3018 3019 3017 3015 3014 3012 3011 3009 3008 3007 3005 3004 3003 3001 3000 2999 2999 2997 2996 2996 2995 2995 2997 2997 2998 2998 2999 2999 3000 3000 3000 3000 3000 3000 3000 3001 3001
3032 3032 3032 3028 3020 3016 3015 3015 3014 3011 3009 3009 3008 3007 3005 3004 3003 3001 3000 2999 2998 2997 2996 2995 2994 2993 2993 2992 2991 2992 2993 2993 2994 2995 2995 2995 2995 2995 2996 2997 2997 2997 2997 2997
3023 3024 3021 3020 3012 3012 3008 3009 3006 3005 3003 3001 3000 2999 2998 2999 2997 2996 2995 2994 2993 2992 2991 2991 2990 2989 2988 2988 2988 2988 2988 2988 2989 2990 2990 2990 2990 2991 2991 2991 2990 2990 2990 2989
3016 3012 3010 3005 3001 3000 2999 2997 2996 2994 2993 2993 2992 2990 2990 2990 2991 2991 2990 2988 2987 2987 2986 2985 2985 2984 2983 2982 2982 2983 2983 2984 2984 2984 2984 2984 2984 2984 2983 2983 2983 2983 2983 2982
3000 2999 3001 2993 2995 2990 2989 2991 2987 2987 2986 2984 2982 2981 2981 2980 2981 2982 2983 2982 2981 2980 2979 2979 2979 2979 2978 2977 2977 2976 2976 2977 2978 2979 2979 2979 2979 2978 2978 2977 2977 2977 2977 2977